Carbondale, IL

4:32 AM CST on December 10, 2019 (GMT -0600)
Southern Illinois

Weather History for KMDH - July, 2019

Change the Weather History Date:

Thursday, July 25, 2019

  Actual Average Record
Temperature  
Mean Temperature 72 °F -  
Max Temperature 84 °F 88 °F 112 °F (1934)
Min Temperature 61 °F 66 °F 54 °F (1911)
Cooling Degree Days 8    
Growing Degree Days 22 (Base 50)    
Moisture  
Dew Point 63 °F    
Average Humidity 78    
Maximum Humidity 100    
Minimum Humidity 45    
Precipitation  
Precipitation 0.00 in - - ()
Sea Level Pressure  
Sea Level Pressure 30.16 in    
Wind  
Wind Speed 1 mph (SE)    
Max Wind Speed 8 mph    
Max Gust Speed -    
Visibility 8 miles    
Events      
Averages and records for this station are not official NWS values.
T = Trace of Precipitation, MM = Missing Value Source: NWS Daily Summary

Daily Weather History Graph

Daily Weather History Graph

Search for Another Location

Airport or City:

Astronomy

Jul. 25, 2019 Rise Set
Actual Time 5:54 AM CDT 8:12 PM CDT
Civil Twilight 5:24 AM CDT 8:41 PM CDT
Nautical Twilight 4:48 AM CDT 9:18 PM CDT
Astronomical Twilight 4:08 AM CDT 9:57 PM CDT
Moon 12:35 AM CDT (7/25) 1:56 PM CDT (7/25)
Length of Visible Light 15h 16m
Length of Day
14h 17m
Last Quarter, 44% of the Moon is Illuminated
Jul 25
Last Quarter
Jul 31
New
Aug 7
First Quarter
Aug 15
Full
Aug 23
Last Quarter

Hourly Weather History & Observations

Time (CDT) Temp. Heat Index Dew Point Humidity Pressure Visibility Wind Dir Wind Speed Gust Speed Precip Events Conditions
12:52 AM 64.0 °F - 63.0 °F 96% 30.13 in 8.0 mi Calm Calm - N/A   Clear
1:52 AM 64.0 °F - 63.0 °F 96% 30.12 in 6.0 mi Calm Calm - N/A   Clear
2:52 AM 63.0 °F - 62.1 °F 97% 30.13 in 5.0 mi Calm Calm - N/A   Clear
3:52 AM 63.0 °F - 62.1 °F 97% 30.13 in 4.0 mi Calm Calm - N/A   Clear
4:03 AM 63.0 °F - 62.1 °F 97% 30.14 in 1.8 mi Calm Calm - N/A   Clear
4:16 AM 62.1 °F - 61.0 °F 96% 30.14 in 3.0 mi Calm Calm - N/A   Clear
4:52 AM 62.1 °F - 61.0 °F 96% 30.14 in 4.0 mi Calm Calm - N/A   Clear
5:01 AM 62.1 °F - 61.0 °F 96% 30.15 in 2.0 mi Calm Calm - N/A   Clear
5:09 AM 62.1 °F - 61.0 °F 96% 30.15 in 5.0 mi Calm Calm - N/A   Clear
5:52 AM 61.0 °F - 61.0 °F 100% 30.16 in 7.0 mi Calm Calm - N/A   Clear
6:52 AM 63.0 °F - 62.1 °F 97% 30.18 in 6.0 mi Calm Calm - N/A   Clear
7:52 AM 66.9 °F - 64.9 °F 93% 30.20 in 9.0 mi Calm Calm - N/A   Scattered Clouds
8:52 AM 73.0 °F - 66.0 °F 79% 30.20 in 10.0 mi Calm Calm - N/A   Clear
9:52 AM 77.0 °F - 63.0 °F 62% 30.19 in 10.0 mi Variable 3.5 mph - N/A   Clear
10:52 AM 80.1 °F 81.1 °F 61.0 °F 52% 30.19 in 10.0 mi Variable 3.5 mph - N/A   Clear
11:52 AM 81.0 °F 81.7 °F 61.0 °F 50% 30.19 in 10.0 mi East 5.8 mph - N/A   Clear
12:52 PM 82.0 °F 83.1 °F 63.0 °F 52% 30.18 in 10.0 mi SW 3.5 mph - N/A   Mostly Cloudy
1:52 PM 84.0 °F 84.5 °F 62.1 °F 47% 30.16 in 10.0 mi SSE 4.6 mph - N/A   Partly Cloudy
2:52 PM 81.0 °F 81.7 °F 61.0 °F 50% 30.15 in 10.0 mi Variable 5.8 mph - N/A   Clear
3:52 PM 82.0 °F 82.1 °F 59.0 °F 45% 30.14 in 10.0 mi Calm Calm - N/A   Clear
4:52 PM 82.0 °F 82.4 °F 60.1 °F 47% 30.13 in 10.0 mi SSE 3.5 mph - N/A   Clear
5:52 PM 82.0 °F 82.7 °F 61.0 °F 49% 30.13 in 10.0 mi ESE 4.6 mph - N/A   Clear
6:52 PM 79.0 °F - 64.0 °F 60% 30.14 in 10.0 mi SE 4.6 mph - N/A   Clear
7:52 PM 73.9 °F - 69.1 °F 85% 30.15 in 7.0 mi Calm Calm - N/A   Clear
8:52 PM 72.0 °F - 66.0 °F 81% 30.16 in 9.0 mi SE 8.1 mph - N/A   Partly Cloudy
9:52 PM 70.0 °F - 66.0 °F 87% 30.17 in 9.0 mi SE 4.6 mph - N/A   Clear
10:52 PM 68.0 °F - 64.9 °F 90% 30.16 in 10.0 mi Calm Calm - N/A   Clear
11:52 PM 68.0 °F - 64.0 °F 87% 30.17 in 10.0 mi Calm Calm - N/A   Clear